This is the latest recevied weather packets stored in our database for station/object F8BJE-13. If no packets are shown the sender has not sent any weather packets the latest 10 day(s).
| Time | Temp. | Humidity | Pressure | Rain* | Wind** | Luminosity | Snow |
|---|---|---|---|---|---|---|---|
| 1777856255 | 11.11° C | 69% | 1014.4 hPa | 0 mm | - | - | - |
| 1777854455 | 11.67° C | 67% | 1014.3 hPa | 0 mm | - | - | - |
| 1777852655 | 11.67° C | 68% | 1014.4 hPa | 0 mm | - | - | - |
| 1777850856 | 11.67° C | 68% | 1014.4 hPa | 0 mm | - | - | - |
| 1777849055 | 12.22° C | 64% | 1014.6 hPa | 0 mm | - | - | - |
| 1777847257 | 12.78° C | 64% | 1014.6 hPa | 0 mm | - | - | - |
| 1777845457 | 13.33° C | 62% | 1014.5 hPa | 0 mm | - | - | - |
| 1777843656 | 13.33° C | 61% | 1014.5 hPa | 0 mm | - | - | - |
| 1777841856 | 13.89° C | 60% | 1014.2 hPa | 0 mm | - | - | - |
| 1777840057 | 14.44° C | 58% | 1014.1 hPa | 0 mm | - | - | - |
| 1777838257 | 14.44° C | 54% | 1014.1 hPa | 0 mm | - | - | - |
| 1777836456 | 15° C | 51% | 1013.7 hPa | 0 mm | - | - | - |
| 1777834656 | 15.56° C | 46% | 1013.8 hPa | 0 mm | - | - | - |
| 1777832857 | 15.56° C | 44% | 1013.5 hPa | 0 mm | - | - | - |
| 1777831056 | 16.11° C | 44% | 1013.3 hPa | 0 mm | - | - | - |
| 1777829256 | 16.67° C | 40% | 1013.7 hPa | 0 mm | - | - | - |
| 1777827456 | 17.22° C | 40% | 1013.9 hPa | 0 mm | - | - | - |
| 1777825656 | 17.78° C | 32% | 1014 hPa | 0 mm | - | - | - |
| 1777823856 | 20° C | 32% | 1014.3 hPa | 0 mm | - | - | - |
| 1777822056 | 18.89° C | 34% | 1014.5 hPa | 0 mm | - | - | - |
| 1777820257 | 18.33° C | 37% | 1014.7 hPa | 0 mm | - | - | - |
| 1777818455 | 17.78° C | 43% | 1015.3 hPa | 0 mm | - | - | - |
| 1777816656 | 17.22° C | 48% | 1015.9 hPa | 0 mm | - | - | - |
| 1777814857 | 16.67° C | 44% | 1016.2 hPa | 0 mm | - | - | - |
| 1777813057 | 16.67° C | 46% | 1016.1 hPa | 0 mm | - | - | - |
* Rain latest hour (hover to see other rain measurements)
** Current wind speed in m/s (hover to see current wind gust speed)